Regional Weather Roundup
Issued by NWS

Home | Current Version | Previous Version | Text Only | Print | Product List | Glossary Off
Versions: 1 2 3 4 5 6 7 8 9 10 11 12 13 14 15 16 17 18 19 20 21 22 23 24 25 26 27 28 29 30 31 32 33 34 35 36 37 38 39 40 41 42 43 44 45 46 47 48 49 50

000
ASUS43 KFSD 272002
RWRSD

WEATHER ROUNDUP FOR SOUTH DAKOTA
NATIONAL WEATHER SERVICE SIOUX FALLS SD
300 PM CDT TUE JUN 27 2017

NOTE: "FAIR" INDICATES FEW OR NO CLOUDS BELOW 12,000 FEET WITH NO
SIGNIFICANT WEATHER AND/OR OBSTRUCTIONS TO VISIBILITY.


SDZ001>005-009-010-012>017-272100-
NORTHWEST AND NORTH CENTRAL SOUTH DAKOTA

CITY           SKY/WX    TMP DP  RH WIND       PRES   REMARKS
BUFFALO          N/A     90  46  21 W32G40    29.55F
FAITH            N/A     87  57  35 MISG      29.61F
MOBRIDGE       MOSUNNY   88  54  31 S26G32    29.61F
$$

SDZ012>016-024>037-041>051-057-063-072>074-272100-
SOUTHWEST AND SOUTH CENTRAL SOUTH DAKOTA

CITY           SKY/WX    TMP DP  RH WIND       PRES   REMARKS
RAPID CTY ARPT CLOUDY    92  52  25 NE9       29.65F
PIERRE         MOSUNNY   89  58  34 S30G36    29.61F
CUSTER         CLOUDY    85  39  19 VRB5G17   29.82F
ELLSWORTH AFB  MOSUNNY   90  49  24 N21       29.65F
PHILIP         MOSUNNY   93  56  28 SW15G24   29.60S
PINE RIDGE     CLOUDY    88  59  37 SW15      29.69F
SPEARFISH      LGT RAIN  86  48  26 W9        29.72S
WINNER         FAIR      89  59  36 S26G41    29.68F
$$

SDZ004>011-016>023-039-040-272100-
NORTHEAST SOUTH DAKOTA

CITY           SKY/WX    TMP DP  RH WIND       PRES   REMARKS
ABERDEEN       CLOUDY    81  49  32 S28G37    29.71F
WATERTOWN      PTSUNNY   75  49  39 S25G32    29.80F
BROOKINGS      SUNNY     75  50  41 S21G32    29.85F
SISSETON         N/A     79  47  32 S24G31    29.77F
$$

SDZ017-020-022-023-036>040-048>070-272100-
SOUTHEAST SOUTH DAKOTA

CITY           SKY/WX    TMP DP  RH WIND       PRES   REMARKS
SIOUX FALLS    MOSUNNY   77  54  44 S17G29    29.85F
HURON          SUNNY     80  48  32 S21G38    29.74F
CHAMBERLAIN    CLOUDY    84  59  42 SE28G38   29.69F
MITCHELL       SUNNY     83  52  34 S23G39    29.77F
YANKTON        SUNNY     81  56  42 SE21G28   29.82F
$$

ABBREVIATIONS USED IN REMARKS
   TC - TEMPERATURE IN CELSIUS
  WCI - WIND CHILL INDEX
   HX - HEAT INDEX
  VSB - VISIBILITY




USA.gov is the U.S. government's official web portal to all federal, state and local government web resources and services.